This demonstration page uses our WeatherBlox Daily Observations layout. Learn more.

Left ArrowRight Arrow

39.01783, -85.05884

Hourly Observations for February 10, 2017

Temp ( °F °C ) Dew Point ( °F °C ) Humidity (%) Winds ( mph kmh ) Pressure ( in mb ) Visibility ( mi km ) Precip ( " mm )
12:52 am 00:52 Mostly Cloudy 15 -9.4 11 -11.7 84 84 SSW 3 6 30.41 1030 10 16 0.00 0.00
1:52 am 01:52 Partly Cloudy 16 -8.9 8 -13.3 71 71 SSW 5 7 30.40 1029 10 16 0.00 0.00
2:52 am 02:52 Mostly Cloudy 16 -8.9 12 -11.1 84 84 S 3 6 30.39 1029 10 16 0.00 0.00
3:52 am 03:52 Cloudy 20 -6.7 13 -10.6 74 74 S 3 6 30.38 1029 10 16 0.00 0.00
4:52 am 04:52 Cloudy 21 -6.1 13 -10.6 71 71 SSE 3 6 30.37 1029 10 16 0.00 0.00
5:52 am 05:52 Cloudy 21 -6.1 13 -10.6 71 71 SSE 6 9 30.35 1028 10 16 0.00 0.00
6:52 am 06:52 Cloudy 22 -5.6 14 -10 71 71 SSE 8 13 30.35 1028 10 16 0.00 0.00
7:52 am 07:52 Cloudy 23 -5 14 -10 68 68 SSE 8 13 30.35 1028 10 16 0.00 0.00
8:52 am 08:52 Cloudy 24 -4.4 15 -9.4 68 68 SSE 12 19 30.33 1027 10 16 0.00 0.00
9:52 am 09:52 Cloudy 25 -3.9 16 -8.9 69 69 S 12 19 30.30 1026 10 16 0.00 0.00
10:52 am 10:52 Cloudy 27 -2.8 18 -7.8 69 69 S 13 20 30.27 1025 10 16 0.00 0.00
11:52 am 11:52 Mostly Cloudy 32 0 19 -7.2 59 59 S 17 28 30.19 1022 10 16 0.00 0.00
12:52 pm 12:52 Mostly Cloudy 37 2.8 18 -7.8 46 46 S 15 24 30.11 1020 10 16 0.00 0.00
1:52 pm 13:52 Mostly Cloudy 43 6.1 16 -8.9 34 34 SSW 16 26 30.04 1017 10 16 0.00 0.00
2:52 pm 14:52 Mostly Cloudy 47 8.3 17 -8.3 30 30 SSW 16 26 29.97 1015 10 16 0.00 0.00
3:52 pm 15:52 Mostly Cloudy 50 10 22 -5.6 33 33 SSW 16 26 29.94 1014 10 16 0.00 0.00
4:52 pm 16:52 Cloudy 50 10 24 -4.4 36 36 SSW 12 19 29.90 1013 10 16 0.00 0.00
5:52 pm 17:52 Cloudy 51 10.6 25 -3.9 36 36 SSW 10 17 29.90 1012 10 16 0.00 0.00
6:52 pm 18:52 Mostly Cloudy 50 10 26 -3.3 39 39 SSW 10 17 29.89 1012 10 16 0.00 0.00
7:52 pm 19:52 Mostly Cloudy 51 10.6 26 -3.3 38 38 SSW 13 20 29.87 1011 10 16 0.00 0.00
8:52 pm 20:52 Mostly Cloudy 51 10.6 27 -2.8 39 39 SW 13 20 29.85 1011 10 16 0.00 0.00
9:52 pm 21:52 Mostly Cloudy 52 11.1 28 -2.2 40 40 SW 10 17 29.88 1012 10 16 0.00 0.00
10:52 pm 22:52 Mostly Cloudy 52 11.1 28 -2.2 40 40 SW 13 20 29.88 1012 10 16 0.00 0.00
11:52 pm 23:52 Mostly Cloudy 53 11.7 28 -2.2 38 38 SW 14 22 29.89 1012 10 16 0.00 0.00

Powered by AerisWeather